Overview Statistics Trail Chart Weather Telemetry Raw packets
 

This is the latest recevied weather packets stored in our database for station/object WX5KDM. If no packets are shown the sender has not sent any weather packets the latest 10 day(s).

<< 10 11 12 13 14 15 16 >>
Time Temp. Humidity Pressure Rain* Wind** Luminosity Snow
1788551246 36.67° C 44% 1014.4 hPa 0 mm - - -
1788550945 36.11° C 48% 1014.8 hPa 0 mm - - -
1788550640 36.11° C 48% 1015 hPa 0 mm - - -
1788550336 36.67° C 46% 1015 hPa 0 mm - - -
1788550031 37.78° C 44% 1014.9 hPa 0 mm - - -
1788549726 38.33° C 43% 1015 hPa 0 mm - - -
1788549423 38.33° C 42% 1015 hPa 0 mm - - -
1788549119 37.78° C 43% 1015.1 hPa 0 mm - - -
1788548815 38.33° C 43% 1015.2 hPa 0 mm - - -
1788548511 38.33° C 44% 1015.5 hPa 0 mm - - -
1788548208 37.78° C 45% 1015.3 hPa 0 mm - - -
1788547908 37.78° C 43% 1015.6 hPa 0 mm - - -
1788547600 36.67° C 45% 1015.5 hPa 0 mm - - -
1788547296 36.11° C 48% 1015.6 hPa 0 mm - - -
1788546992 35.56° C 48% 1015.7 hPa 0 mm - - -
1788546692 35.56° C 50% 1015.6 hPa 0 mm - - -
1788546387 36.11° C 51% 1015.8 hPa 0 mm - - -
1788546082 36.11° C 49% 1015.8 hPa 0 mm - - -
1788545778 36.11° C 49% 1015.9 hPa 0 mm - - -
1788545478 36.11° C 49% 1015.9 hPa 0 mm - - -
1788545173 35.56° C 49% 1016.1 hPa 0 mm - - -
1788544868 36.11° C 49% 1016 hPa 0 mm - - -
1788544562 36.67° C 48% 1016 hPa 0 mm - - -
1788544260 36.67° C 50% 1016.1 hPa 0 mm - - -
1788543955 36.11° C 47% 1016.2 hPa 0 mm - - -

* Rain latest hour (hover to see other rain measurements)
** Current wind speed in m/s (hover to see current wind gust speed)